COSMOS 1275 DEB, 17638

Orbit data source: Space-Track

COSMOS 1275 DEB, 17638 is space debris in LEO originally from a launch on Thu, 04 Jun 1981 UTC launched from the Plesetsk Missile And Space Complex (PKMTR). Debris objects in space refer to the collection of defunct objects orbiting the Earth. Examples of debris include non-operational satellites, rocket bodies, and fragments generated from explosions, collisions, or faulty payload assembly.

Loading next visibility...
Identifier
17638, 1981-053LH
Orbit
LEO
Country
Flag of CISCIS
Related business
Manufacturer
Unknown
Mission
Spacecraft
Bus & Motor
Unknown
Mass
Unknown
Launch date (UTC)
1981-06-04 (45 years ago)
Launch vehicle
Unknown
Launch site
Plesetsk Missile And Space Complex (PKMTR)
Object type
Payload
Rocket body
Debris
Shape & HBR
Unknown shape, 0.1 m
Radar Cross Section
Medium (>0.1 m² and <1 m²)

Expand to show TLE details & history
Last TLE update: 2 days ago

TLE from 2 days ago
0 COSMOS 1275 DEB
1 17638U 81053LH  26148.42592372  .00001356  00000-0  13848-2 0  9998
2 17638  82.9895 303.0972 0103818 283.5264 104.6123 13.73615431 42213
Epoch: 2026-05-28T10:13Z
TLE epoch observation values (Epoch: 2026-05-28T10:13:19.809Z)
Latitude
29.09179°
Longitude
-92.30317°
Altitude
1,010.257 km
Speed
7.339 km/s
True Right ascension
20h 28m 00s
True Declination
28° 57' 03"
Sunlit
Object was in daylight at epoch
Visualization orbit readout
Latitude
Unknown
Longitude
Unknown
Altitude
Unknown
Speed
Unknown
Apparent Right ascension
Unknown
Apparent Declination
Unknown
Sunlit
N/A
Visualization observer readout
Local Sidereal Time
21:57:45
Azimuth
Unknown
Elevation
Unknown
Doppler factor
Unknown
Orbital elements
Apogee altitude
1,060.198 km
Perigee altitude
907.338 km
Semi-major axis
7,361.905 km
Eccentricity
0.01038
Inclination
82.9895°
RAAN
303.0972°
Arg. of periapsis
283.5264°
True anomaly
105.75965°
Mean anomaly
104.6123°
Eccentric anomaly
105.18636°
Mean motion
3.43604 °/min
Orbital period
104.77 mins
BSTAR
0.0013848
Loading maneuver chart data...
Computing Atmospheric mass density...
Loading historical data...
Loading historical data...
Loading historical data...
Loading historical data...
Loading historical data...
Loading historical data...
Loading historical data...

Documentation

Showing up to 5 results
|